Hourly Data Report for January 15, 2017

All times are specified in Local Standard Time (LST). Add 1 hour to adjust for Daylight Saving Time where and when it is observed.

ST LEONARD CS
NEW BRUNSWICK

47°09'28.050" N
67°49'55.014" W
245.00 m
810I001
71019
WIY

Download Data

Hourly Data (January 2017)
Hourly Data Report for January 15, 2017
Temp Definition
°C
Dew Point Temp Definition
°C
Rel Hum Definition
%
Wind Dir Definition
10's deg

Wind Spd Definition
km/h
Visibility Definition
km
Stn Press Definition
kPa
Hmdx Definition


Wind Chill Definition


Weather Definition


TIME
00:00 -14.7 -19.1 69 21 11   98.96   -21 LegendNANA
01:00 -14.7 -18.8 71 21 12   98.81   -22 LegendNANA
02:00 -14.5 -19.1 68 21 9   98.76   -20 LegendNANA
03:00 -15.2 -19.0 73 20 9   98.75   -21 LegendNANA
04:00 -15.7 -19.6 72 18 7   98.71   -21 LegendNANA
05:00 -17.6 -19.6 85 14 9   98.68   -24 LegendNANA
06:00 -20.0 -21.9 85   0   98.69     LegendNANA
07:00 -18.8 -20.2 89 31 4   98.74   -22 LegendNANA
08:00 -17.7 -19.0 90 27 9   98.82   -24 LegendNANA
09:00 -18.0 -19.6 88 29 9   98.97   -24 LegendNANA
10:00 -15.3 -18.8 74 30 23   99.07   -25 LegendNANA
11:00 -14.5 -19.8 64 32 31   99.15   -26 LegendNANA
12:00 -14.2 -20.4 59 32 33   99.19   -25 LegendNANA
13:00 -14.3 -20.7 58 30 26   99.22   -24 LegendNANA
14:00 -14.7 -21.9 54 31 28   99.25   -25 LegendNANA
15:00 -15.0 -22.4 53 30 22   99.29   -25 LegendNANA
16:00 -15.5 -22.2 56 30 21   99.38   -25 LegendNANA
17:00 -16.5 -22.2 61 29 17   99.50   -25 LegendNANA
18:00 -17.6 -22.6 65 30 15   99.54   -26 LegendNANA
19:00 -19.5 -23.5 70 30 14   99.58   -28 LegendNANA
20:00 -20.8 -23.9 76 33 2   99.65   -23 LegendNANA
21:00 -22.1 -24.2 83   0   99.70     LegendNANA
22:00 -21.2 -23.3 83 30 4   99.73   -25 LegendNANA
23:00 -24.4 -26.7 81 15 7   99.72   -31 LegendNANA

Notes on Data Quality.

Legend

  • E = Estimated
  • M = Missing
  • NA = Not Available
  • ‡ = Partner data that is not subject to review by the National Climate Archives
Date modified: